Grand Rapids, MI

5:21 AM EDT on September 28, 2016 (GMT -0400)
Gerald R. Ford International

Weather History for KGRR - March, 2014

Change the Weather History Date:

Thursday, March 20, 2014

  Actual Average Record
Temperature  
Mean Temperature 31 °F 37 °F  
Max Temperature 37 °F 46 °F 83 °F (2012)
Min Temperature 25 °F 28 °F 3 °F (1965)
Degree Days  
Heating Degree Days 34 28  
Month to date heating degree days 812 629  
Since 1 July heating degree days 6093 5406  
Cooling Degree Days 0 0  
Month to date cooling degree days 0 0  
Year to date cooling degree days 0 0  
Moisture  
Dew Point 23 °F    
Average Humidity 64    
Maximum Humidity 75    
Minimum Humidity 52    
Precipitation  
Precipitation 0.01 in 0.08 in 1.22 in (2011)
Month to date precipitation 0.73 1.45  
Year to date precipitation 6.53 5.33  
Snow  
Snow 0.10 in 0.20 in 8.40 in (1940)
Month to date snowfall 5.1 6.5  
Since 1 July snowfall 112.9 71.3  
Snow Depth 4.00 in    
Sea Level Pressure  
Sea Level Pressure 29.95 in    
Wind  
Wind Speed 12 mph (West)    
Max Wind Speed 24 mph    
Max Gust Speed 31 mph    
Visibility 8 miles    
Events Snow    
T = Trace of Precipitation, MM = Missing Value Source: NWS Daily Summary

Daily Weather History Graph

Daily Weather History Graph

Search for Another Location

Airport or City:

Trip Planner

Search our weather history database for the weather conditions in past years. The results will help you decide how hot, cold, wet, or windy it might be!

Date:

Astronomy

Mar. 20, 2014 Rise Set
Actual Time 7:45 AM EDT 7:54 PM EDT
Civil Twilight 7:17 AM EDT 8:22 PM EDT
Nautical Twilight 6:44 AM EDT 8:55 PM EDT
Astronomical Twilight 6:10 AM EDT 9:29 PM EDT
Moon No Moon Rise 9:45 AM EDT (3/20)
Length of Visible Light 13h 05m
Length of Day
12h 09m
Waning Gibbous, 84% of the Moon is Illuminated
Mar 20
Waning Gibbous
Mar 23
Last Quarter
Mar 30
New
Apr 7
First Quarter
Apr 15
Full

Hourly Weather History & Observations

Time (EDT) Temp. Windchill Dew Point Humidity Pressure Visibility Wind Dir Wind Speed Gust Speed Precip Events Conditions
12:04 AM 34.0 °F 23.8 °F - N/A% 29.83 in 2.0 mi West 16.1 mph - 0.00 in Snow Light Snow
12:17 AM 34.0 °F 24.2 °F - N/A% 29.84 in 1.5 mi West 15.0 mph - 0.00 in Snow Light Snow
12:30 AM 34.0 °F 24.2 °F - N/A% 29.83 in 2.0 mi West 15.0 mph - 0.01 in Snow Light Snow
12:48 AM 33.8 °F 22.8 °F - N/A% 29.84 in 1.5 mi West 18.4 mph - 0.01 in Snow Light Snow
12:53 AM 33.1 °F 21.5 °F - N/A% 29.86 in 1.5 mi West 19.6 mph - 0.01 in Snow Light Snow
12:58 AM 33.1 °F 22.6 °F - N/A% 29.84 in 2.0 mi West 16.1 mph - 0.00 in Snow Light Snow
1:08 AM 34.0 °F 23.4 °F - N/A% 29.84 in 4.0 mi West 17.3 mph 25.3 mph 0.00 in Snow Light Snow
1:15 AM 34.0 °F 23.8 °F - N/A% 29.84 in 4.0 mi West 16.1 mph 26.5 mph 0.00 in Snow Light Snow
1:30 AM 33.1 °F 22.6 °F - N/A% 29.85 in 2.0 mi West 16.1 mph - 0.00 in Snow Light Snow
1:44 AM 34.0 °F 24.2 °F - N/A% 29.85 in 3.0 mi West 15.0 mph 31.1 mph 0.00 in Snow Light Snow
1:53 AM 33.1 °F 23.0 °F - N/A% 29.87 in 4.0 mi West 15.0 mph 23.0 mph 0.00 in Snow Light Snow
2:34 AM 34.0 °F 23.0 °F - N/A% 29.86 in 5.0 mi West 18.4 mph 26.5 mph 0.00 in Snow Light Snow
2:53 AM 33.1 °F 23.0 °F - N/A% 29.89 in 6.0 mi West 15.0 mph - 0.00 in   Haze
3:53 AM 34.0 °F 23.8 °F - N/A% 29.89 in 9.0 mi West 16.1 mph 21.9 mph N/A   Overcast
4:32 AM 34.0 °F 23.0 °F - N/A% 29.87 in 10.0 mi WNW 18.4 mph 23.0 mph N/A   Overcast
4:53 AM 34.0 °F 23.8 °F - N/A% 29.91 in 10.0 mi West 16.1 mph - N/A   Overcast
5:53 AM 34.0 °F 23.8 °F 26.1 °F 73% 29.92 in 10.0 mi West 16.1 mph - 0.00 in Snow Light Snow
6:01 AM 34.0 °F 23.8 °F 26.1 °F 73% 29.90 in 9.0 mi West 16.1 mph - 0.00 in Snow Light Snow
6:53 AM 33.1 °F 23.4 °F 28.0 °F 82% 29.94 in 9.0 mi West 13.8 mph 25.3 mph 0.00 in   Overcast
7:53 AM 33.1 °F 22.6 °F 27.0 °F 78% 29.95 in 10.0 mi WNW 16.1 mph 25.3 mph N/A   Overcast
8:53 AM 33.1 °F 23.9 °F 27.0 °F 78% 29.97 in 10.0 mi West 12.7 mph - N/A   Overcast
9:53 AM 34.0 °F 25.0 °F 26.1 °F 73% 29.99 in 10.0 mi WNW 12.7 mph - N/A   Overcast
10:53 AM 35.1 °F 26.4 °F 26.1 °F 70% 30.00 in 10.0 mi West 12.7 mph 24.2 mph N/A   Mostly Cloudy
11:53 AM 35.1 °F 24.1 °F 25.0 °F 67% 30.01 in 10.0 mi WNW 19.6 mph 25.3 mph N/A   Overcast
12:53 PM 35.1 °F 24.5 °F 24.1 °F 64% 30.01 in 10.0 mi WNW 18.4 mph 25.3 mph N/A   Overcast
1:53 PM 36.0 °F 26.7 °F 21.9 °F 57% 30.01 in 10.0 mi WNW 15.0 mph - N/A   Overcast
2:53 PM 36.0 °F 25.6 °F 19.9 °F 52% 30.01 in 10.0 mi West 18.4 mph - N/A   Overcast
3:53 PM 37.0 °F 27.4 °F 21.0 °F 52% 30.01 in 10.0 mi West 17.3 mph - N/A   Mostly Cloudy
4:53 PM 36.0 °F 27.1 °F 21.0 °F 55% 30.02 in 10.0 mi West 13.8 mph - N/A   Overcast
5:53 PM 36.0 °F 27.5 °F 21.0 °F 55% 30.02 in 10.0 mi West 12.7 mph - N/A   Overcast
6:53 PM 36.0 °F 28.0 °F 19.9 °F 52% 30.03 in 10.0 mi NW 11.5 mph - N/A   Mostly Cloudy
7:53 PM 34.0 °F 26.6 °F 19.9 °F 56% 30.04 in 10.0 mi WNW 9.2 mph - N/A   Partly Cloudy
8:53 PM 33.1 °F 27.7 °F 19.9 °F 59% 30.05 in 10.0 mi West 5.8 mph - N/A   Clear
9:53 PM 33.1 °F 30.0 °F 19.0 °F 56% 30.06 in 10.0 mi WNW 3.5 mph - N/A   Clear
10:53 PM 28.0 °F - 19.0 °F 69% 30.07 in 10.0 mi Calm Calm - N/A   Clear
11:53 PM 27.0 °F 23.0 °F 19.9 °F 75% 30.09 in 10.0 mi SW 3.5 mph - N/A   Clear